AEE270 LGAV-LGSR

Flight info

Callsign AEE270
Flight time 0h 23m
Altitude 17000
Route DCT KEA L607 NETIS B34 PEXAN DCT
Aircraft A320/M-SDE3/L

Departure

Time 2026-05-09 15:55
Airport Athens Eleftherios Venizelos International Airport (LGAV)

Arrival

Time 2026-05-09 16:19
Airport Santorini International Airport (LGSR)
Time Latitude Longitude Altitude Speed Heading
2026-05-09 15:25 37.93913 23.95121 301 ft 0 kts 308°
2026-05-09 15:45 37.93910 23.95125 301 ft 3 kts 308°
2026-05-09 15:45 37.93893 23.95151 302 ft 4 kts 311°
2026-05-09 15:45 37.93874 23.95176 301 ft 4 kts 322°
2026-05-09 15:45 37.93852 23.95192 300 ft 4 kts 359°
2026-05-09 15:46 37.93840 23.95189 302 ft 0 kts 36°
2026-05-09 15:50 37.93841 23.95190 302 ft 1 kts 36°
2026-05-09 15:50 37.93860 23.95218 302 ft 7 kts 68°
2026-05-09 15:51 37.93881 23.95302 300 ft 14 kts 71°
2026-05-09 15:51 37.93850 23.95429 297 ft 17 kts 104°
2026-05-09 15:51 37.93925 23.95545 299 ft 19 kts 37°
2026-05-09 15:51 37.94036 23.95649 298 ft 21 kts 36°
2026-05-09 15:52 37.94288 23.95887 299 ft 24 kts 37°
2026-05-09 15:52 37.94428 23.96020 300 ft 26 kts 37°
2026-05-09 15:52 37.94580 23.96165 300 ft 28 kts 37°
2026-05-09 15:53 37.94743 23.96318 300 ft 29 kts 36°
2026-05-09 15:53 37.94906 23.96473 302 ft 30 kts 37°
2026-05-09 15:53 37.95079 23.96636 303 ft 32 kts 37°
2026-05-09 15:53 37.95258 23.96805 304 ft 28 kts 37°
2026-05-09 15:54 37.95294 23.96903 305 ft 11 kts 118°
2026-05-09 15:54 37.95249 23.96983 308 ft 11 kts 127°
2026-05-09 15:54 37.95190 23.97020 310 ft 11 kts 202°
2026-05-09 15:54 37.95073 23.96910 310 ft 48 kts 217°
2026-05-09 15:55 37.94623 23.96483 297 ft 111 kts 217°
2026-05-09 15:55 37.93871 23.95768 291 ft 158 kts 216°
2026-05-09 15:55 37.92926 23.94956 738 ft 166 kts 207°
2026-05-09 15:55 37.91904 23.94270 1471 ft 165 kts 205°
2026-05-09 15:56 37.90891 23.93584 2164 ft 168 kts 207°
2026-05-09 15:56 37.89804 23.92846 2525 ft 188 kts 208°
2026-05-09 15:56 37.88571 23.92004 2838 ft 214 kts 208°
2026-05-09 15:56 37.87188 23.91056 3290 ft 236 kts 208°
2026-05-09 15:57 37.85714 23.90048 4006 ft 246 kts 210°
2026-05-09 15:57 37.84187 23.89004 4847 ft 252 kts 212°
2026-05-09 15:57 37.82631 23.87938 5714 ft 257 kts 211°
2026-05-09 15:57 37.81046 23.86852 6559 ft 263 kts 211°
2026-05-09 15:58 37.79434 23.85747 6875 ft 264 kts 211°
2026-05-09 15:58 37.77777 23.84753 6985 ft 265 kts 197°
2026-05-09 15:58 37.75929 23.84701 7011 ft 271 kts 167°
2026-05-09 15:58 37.74263 23.85892 7120 ft 289 kts 132°
2026-05-09 15:59 37.73174 23.88067 7865 ft 298 kts 117°
2026-05-09 15:59 37.72209 23.90404 8691 ft 303 kts 118°
2026-05-09 15:59 37.71224 23.92777 9489 ft 308 kts 118°
2026-05-09 15:59 37.70211 23.95204 10174 ft 319 kts 119°
2026-05-09 16:00 37.69140 23.97762 10463 ft 341 kts 119°
2026-05-09 16:00 37.68762 23.98666 10522 ft 349 kts 119°
2026-05-09 16:00 37.66774 24.03422 10796 ft 387 kts 119°
2026-05-09 16:00 37.65490 24.06496 11125 ft 402 kts 118°
2026-05-09 16:01 37.64178 24.09643 11683 ft 409 kts 119°
2026-05-09 16:01 37.62844 24.12840 12287 ft 414 kts 119°
2026-05-09 16:01 37.61494 24.16071 12807 ft 420 kts 119°
2026-05-09 16:01 37.60130 24.19336 12975 ft 422 kts 119°
2026-05-09 16:02 37.58759 24.22610 13012 ft 422 kts 119°
2026-05-09 16:02 37.55708 24.28902 13012 ft 424 kts 133°
2026-05-09 16:02 37.53533 24.31494 13008 ft 434 kts 146°
2026-05-09 16:03 37.51009 24.33577 13011 ft 435 kts 152°
2026-05-09 16:03 37.48433 24.35593 13007 ft 436 kts 152°
2026-05-09 16:03 37.45857 24.37609 13008 ft 436 kts 152°
2026-05-09 16:03 37.43283 24.39628 13005 ft 435 kts 151°
2026-05-09 16:04 37.40726 24.41640 12987 ft 434 kts 151°
2026-05-09 16:04 37.38166 24.43651 13015 ft 434 kts 151°
2026-05-09 16:04 37.36472 24.44981 12997 ft 434 kts 151°
2026-05-09 16:04 37.33050 24.47671 13002 ft 434 kts 151°
2026-05-09 16:05 37.30486 24.49678 13005 ft 434 kts 151°
2026-05-09 16:05 37.27920 24.51681 12996 ft 434 kts 152°
2026-05-09 16:05 37.25355 24.53678 13002 ft 434 kts 152°
2026-05-09 16:05 37.22790 24.55674 13006 ft 434 kts 152°
2026-05-09 16:06 37.20225 24.57670 12996 ft 434 kts 152°
2026-05-09 16:06 37.17664 24.59663 13013 ft 434 kts 152°
2026-05-09 16:06 37.15100 24.61658 13003 ft 434 kts 152°
2026-05-09 16:06 37.12533 24.63656 12995 ft 434 kts 152°
2026-05-09 16:07 37.10001 24.65627 13003 ft 434 kts 152°
2026-05-09 16:07 37.07402 24.67646 13005 ft 434 kts 152°
2026-05-09 16:07 37.04866 24.69617 13008 ft 434 kts 152°
2026-05-09 16:07 37.02304 24.71610 13001 ft 434 kts 152°
2026-05-09 16:08 36.99740 24.73599 12997 ft 434 kts 152°
2026-05-09 16:08 36.97260 24.75766 12993 ft 438 kts 141°
2026-05-09 16:08 36.95268 24.78656 13009 ft 443 kts 127°
2026-05-09 16:08 36.93529 24.81840 12999 ft 443 kts 126°
2026-05-09 16:09 36.91810 24.85024 12860 ft 440 kts 126°
2026-05-09 16:09 36.90120 24.88182 12162 ft 435 kts 126°
2026-05-09 16:09 36.88453 24.91311 11478 ft 430 kts 125°
2026-05-09 16:09 36.86804 24.94406 10799 ft 426 kts 126°
2026-05-09 16:10 36.85171 24.97462 10130 ft 421 kts 126°
2026-05-09 16:10 36.83551 25.00481 9388 ft 416 kts 126°
2026-05-09 16:10 36.81948 25.03455 8663 ft 410 kts 127°
2026-05-09 16:10 36.80368 25.06378 7973 ft 403 kts 127°
2026-05-09 16:11 36.78841 25.09205 7585 ft 384 kts 127°
2026-05-09 16:11 36.77369 25.11934 7113 ft 375 kts 126°
2026-05-09 16:11 36.75923 25.14614 6570 ft 370 kts 127°
2026-05-09 16:11 36.74495 25.17255 5982 ft 365 kts 126°
2026-05-09 16:12 36.73081 25.19869 5378 ft 361 kts 126°
2026-05-09 16:12 36.71682 25.22451 4775 ft 358 kts 126°
2026-05-09 16:12 36.70334 25.24942 4496 ft 332 kts 126°
2026-05-09 16:12 36.69102 25.27222 4352 ft 304 kts 127°
2026-05-09 16:13 36.67964 25.29324 4143 ft 283 kts 127°
2026-05-09 16:13 36.66878 25.31323 3747 ft 273 kts 127°
2026-05-09 16:13 36.65853 25.33205 3614 ft 253 kts 126°
2026-05-09 16:13 36.64891 25.34959 3334 ft 240 kts 129°
2026-05-09 16:14 36.63724 25.36397 3056 ft 234 kts 146°
2026-05-09 16:14 36.62309 25.37352 2973 ft 230 kts 161°
2026-05-09 16:14 36.60806 25.38049 2983 ft 231 kts 161°
2026-05-09 16:14 36.59304 25.38757 2982 ft 231 kts 161°
2026-05-09 16:15 36.57803 25.39470 2986 ft 231 kts 161°
2026-05-09 16:15 36.56304 25.40182 2989 ft 231 kts 161°
2026-05-09 16:15 36.54804 25.40893 3006 ft 231 kts 161°
2026-05-09 16:15 36.53294 25.41610 2726 ft 233 kts 161°
2026-05-09 16:16 36.51805 25.42315 2385 ft 223 kts 161°
2026-05-09 16:16 36.50417 25.42973 2098 ft 204 kts 161°
2026-05-09 16:16 36.49152 25.43572 1842 ft 186 kts 162°
2026-05-09 16:16 36.47991 25.44119 1649 ft 173 kts 162°
2026-05-09 16:17 36.46914 25.44625 1408 ft 157 kts 161°
2026-05-09 16:17 36.45932 25.45087 1189 ft 147 kts 161°
2026-05-09 16:17 36.44992 25.45531 1010 ft 143 kts 160°
2026-05-09 16:17 36.44078 25.45985 807 ft 140 kts 159°
2026-05-09 16:18 36.43162 25.46389 577 ft 139 kts 160°
2026-05-09 16:18 36.42256 25.46819 411 ft 140 kts 159°
2026-05-09 16:18 36.41343 25.47239 239 ft 140 kts 158°
2026-05-09 16:18 36.40434 25.47672 94 ft 135 kts 160°
2026-05-09 16:19 36.39717 25.48010 72 ft 73 kts 159°
2026-05-09 16:19 36.39408 25.48156 64 ft 40 kts 159°
2026-05-09 16:19 36.39153 25.48274 61 ft 37 kts 160°
2026-05-09 16:19 36.39025 25.48286 49 ft 16 kts 233°
2026-05-09 16:20 36.39026 25.48171 56 ft 13 kts 330°
2026-05-09 16:20 36.39110 25.48130 57 ft 13 kts 339°
2026-05-09 16:20 36.39193 25.48090 61 ft 13 kts 339°
2026-05-09 16:20 36.39276 25.48051 65 ft 14 kts 339°
2026-05-09 16:21 36.39375 25.48005 64 ft 16 kts 339°
2026-05-09 16:21 36.39480 25.47956 68 ft 16 kts 340°
2026-05-09 16:21 36.39590 25.47904 75 ft 17 kts 340°
2026-05-09 16:21 36.39707 25.47849 81 ft 18 kts 338°
2026-05-09 16:22 36.39830 25.47789 86 ft 20 kts 339°
2026-05-09 16:22 36.39964 25.47726 90 ft 22 kts 339°
2026-05-09 16:22 36.40112 25.47656 89 ft 24 kts 339°
2026-05-09 16:22 36.40254 25.47588 92 ft 11 kts 334°
2026-05-09 16:23 36.40264 25.47501 90 ft 12 kts 270°
2026-05-09 16:23 36.40331 25.47453 92 ft 11 kts 342°
2026-05-09 16:23 36.40347 25.47399 90 ft 3 kts 253°
2026-05-09 16:23 36.40345 25.47391 90 ft 0 kts 250°